JE3XST-13 Weather Reports


Display with metric or nautical units.
time (UTC)temp
F
wind
direction
speed
MPH
gust
MPH
rain 1hr
in
rain 24hr
in
rain mn
in
humidity
%
barometer
mb
20260505041518 71 102 3.0 6.0 0.00 0.05 0.00 26 1019.2
20260505034518 70 168 2.0 8.0 0.00 0.05 0.00 26 1019.3
20260505031518 69 107 5.0 8.0 0.00 0.05 0.00 31 1019.7
20260505024519 68 153 5.0 7.0 0.00 0.05 0.00 32 1020.1
20260505021519 67 108 1.0 7.0 0.00 0.05 0.00 33 1020.6
20260505014517 66 231 0.0 2.0 0.00 0.05 0.00 40 1020.9
20260505011517 64 100 3.0 3.0 0.00 0.05 0.00 48 1021.1
20260505004519 62 165 1.0 7.0 0.00 0.05 0.00 52 1021.3
20260505001518 61 197 1.0 3.0 0.00 0.05 0.00 55 1021.4
20260504234518 59 184 1.0 3.0 0.00 0.05 0.00 61 1021.5
20260504231517 58 96 0.0 0.0 0.00 0.05 0.00 66 1021.5
20260504224517 56 170 0.0 0.0 0.00 0.05 0.00 73 1021.4
20260504221517 54 167 0.0 0.0 0.00 0.05 0.00 78 1021.3
20260504214519 52 276 0.0 0.0 0.00 0.05 0.00 81 1021.0
20260504211517 51 15 0.0 0.0 0.00 0.05 0.00 84 1020.7
20260504204518 50 16 0.0 0.0 0.00 0.05 0.00 86 1020.2
20260504201518 49 105 0.0 0.0 0.00 0.05 0.00 86 1019.7
20260504194518 49 317 0.0 0.0 0.00 0.05 0.00 87 1019.0
20260504191518 49 324 0.0 0.0 0.00 0.06 0.00 87 1018.6
20260504184517 49 324 0.0 0.0 0.00 0.06 0.00 87 1018.4
20260504181517 50 324 0.0 0.0 0.00 0.06 0.00 86 1018.2
20260504174517 50 324 0.0 0.0 0.00 0.14 0.00 85 1017.9
20260504171518 51 314 2.0 6.0 0.00 0.15 0.00 85 1017.7
20260504081518 60 298 1.0 7.0 0.01 1.17 0.20 79 1009.4